Year,Month,Day,Hour,Minute,Value (Times are PST for temperature in C)
2018,07,14,00,00,19.50
2018,07,14,00,01,19.60
2018,07,14,00,02,19.60
2018,07,14,00,03,19.70
2018,07,14,00,04,19.70
2018,07,14,00,05,19.80
2018,07,14,00,06,19.80
2018,07,14,00,07,19.90
2018,07,14,00,08,20.00
2018,07,14,00,09,20.00
2018,07,14,00,10,20.00
2018,07,14,00,11,20.10
2018,07,14,00,12,20.10
2018,07,14,00,13,20.20
2018,07,14,00,14,20.20
2018,07,14,00,15,20.30
2018,07,14,00,16,20.30
2018,07,14,00,17,20.30
2018,07,14,00,18,20.30
2018,07,14,00,19,20.30
2018,07,14,00,20,20.30
2018,07,14,00,21,20.20
2018,07,14,00,22,20.20
2018,07,14,00,23,20.20
2018,07,14,00,24,20.20
2018,07,14,00,25,20.20
2018,07,14,00,26,20.10
2018,07,14,00,27,20.10
2018,07,14,00,28,20.10
2018,07,14,00,29,20.10
2018,07,14,00,30,20.10
2018,07,14,00,31,20.10
2018,07,14,00,32,20.10
2018,07,14,00,33,20.10
2018,07,14,00,34,20.00
2018,07,14,00,35,20.00
2018,07,14,00,36,20.00
2018,07,14,00,37,20.00
2018,07,14,00,38,20.00
2018,07,14,00,39,19.90
2018,07,14,00,40,19.90
2018,07,14,00,41,19.90
2018,07,14,00,42,19.90
2018,07,14,00,43,19.90
2018,07,14,00,44,19.90
2018,07,14,00,45,19.90
2018,07,14,00,46,19.80
2018,07,14,00,47,19.80
2018,07,14,00,48,19.80
2018,07,14,00,49,19.70
2018,07,14,00,50,19.70
2018,07,14,00,51,19.60
2018,07,14,00,52,19.50
2018,07,14,00,53,19.50
2018,07,14,00,54,19.40
2018,07,14,00,55,19.40
2018,07,14,00,56,19.40
2018,07,14,00,57,19.40
2018,07,14,00,58,19.50
2018,07,14,00,59,19.50
2018,07,14,01,00,19.60
2018,07,14,01,01,19.60
2018,07,14,01,02,19.70
2018,07,14,01,03,19.70
2018,07,14,01,04,19.80
2018,07,14,01,05,19.80
2018,07,14,01,06,19.80
2018,07,14,01,07,19.80
2018,07,14,01,08,19.80
2018,07,14,01,09,19.80
2018,07,14,01,10,19.80
2018,07,14,01,11,19.80
2018,07,14,01,12,19.80
2018,07,14,01,13,19.80
2018,07,14,01,14,19.80
2018,07,14,01,15,19.80
2018,07,14,01,16,19.80
2018,07,14,01,17,19.80
2018,07,14,01,18,19.80
2018,07,14,01,19,19.80
2018,07,14,01,20,19.80
2018,07,14,01,21,19.80
2018,07,14,01,22,19.70
2018,07,14,01,23,19.70
2018,07,14,01,24,19.70
2018,07,14,01,25,19.70
2018,07,14,01,26,19.70
2018,07,14,01,27,19.70
2018,07,14,01,28,19.60
2018,07,14,01,29,19.60
2018,07,14,01,30,19.60
2018,07,14,01,31,19.50
2018,07,14,01,32,19.60
2018,07,14,01,33,19.50
2018,07,14,01,34,19.60
2018,07,14,01,35,19.60
2018,07,14,01,36,19.60
2018,07,14,01,37,19.60
2018,07,14,01,38,19.60
2018,07,14,01,39,19.70
2018,07,14,01,40,19.70
2018,07,14,01,41,19.70
2018,07,14,01,42,19.70
2018,07,14,01,43,19.70
2018,07,14,01,44,19.70
2018,07,14,01,45,19.60
2018,07,14,01,46,19.60
2018,07,14,01,47,19.60
2018,07,14,01,48,19.60
2018,07,14,01,49,19.60
2018,07,14,01,50,19.60
2018,07,14,01,51,19.50
2018,07,14,01,52,19.50
2018,07,14,01,53,19.50
2018,07,14,01,54,19.50
2018,07,14,01,55,19.50
2018,07,14,01,56,19.40
2018,07,14,01,57,19.40
2018,07,14,01,58,19.30
2018,07,14,01,59,19.20
2018,07,14,02,00,19.20
2018,07,14,02,01,19.10
2018,07,14,02,02,19.00
2018,07,14,02,03,18.90
2018,07,14,02,04,18.70
2018,07,14,02,05,18.60
2018,07,14,02,06,18.50
2018,07,14,02,07,18.40
2018,07,14,02,08,18.30
2018,07,14,02,09,18.30
2018,07,14,02,10,18.20
2018,07,14,02,11,18.20
2018,07,14,02,12,18.20
2018,07,14,02,13,18.10
2018,07,14,02,14,18.10
2018,07,14,02,15,18.10
2018,07,14,02,16,18.00
2018,07,14,02,17,18.00
2018,07,14,02,18,17.90
2018,07,14,02,19,17.90
2018,07,14,02,20,17.80
2018,07,14,02,21,17.80
2018,07,14,02,22,17.70
2018,07,14,02,23,17.70
2018,07,14,02,24,17.70
2018,07,14,02,25,17.60
2018,07,14,02,26,17.70
2018,07,14,02,27,17.70
2018,07,14,02,28,17.70
2018,07,14,02,29,17.70
2018,07,14,02,30,17.70
2018,07,14,02,31,17.70
2018,07,14,02,32,17.70
2018,07,14,02,33,17.80
2018,07,14,02,34,17.80
2018,07,14,02,35,17.80
2018,07,14,02,36,17.80
2018,07,14,02,37,17.70
2018,07,14,02,38,17.70
2018,07,14,02,39,17.70
2018,07,14,02,40,17.60
2018,07,14,02,41,17.60
2018,07,14,02,42,17.60
2018,07,14,02,43,17.60
2018,07,14,02,44,17.50
2018,07,14,02,45,17.50
2018,07,14,02,46,17.50
2018,07,14,02,47,17.50
2018,07,14,02,48,17.50
2018,07,14,02,49,17.50
2018,07,14,02,50,17.50
2018,07,14,02,51,17.50
2018,07,14,02,52,17.60
2018,07,14,02,53,17.60
2018,07,14,02,54,17.60
2018,07,14,02,55,17.60
2018,07,14,02,56,17.60
2018,07,14,02,57,17.60
2018,07,14,02,58,17.60
2018,07,14,02,59,17.60
2018,07,14,03,00,17.60
2018,07,14,03,01,17.60
2018,07,14,03,02,17.60
2018,07,14,03,03,17.60
2018,07,14,03,04,17.60
2018,07,14,03,05,17.60
2018,07,14,03,06,17.70
2018,07,14,03,07,17.70
2018,07,14,03,08,17.70
2018,07,14,03,09,17.70
2018,07,14,03,10,17.70
2018,07,14,03,11,17.70
2018,07,14,03,12,17.60
2018,07,14,03,13,17.50
2018,07,14,03,14,17.40
2018,07,14,03,15,17.30
2018,07,14,03,16,17.20
2018,07,14,03,17,17.20
2018,07,14,03,18,17.10
2018,07,14,03,19,17.00
2018,07,14,03,20,16.90
2018,07,14,03,21,16.80
2018,07,14,03,22,16.70
2018,07,14,03,23,16.60
2018,07,14,03,24,16.50
2018,07,14,03,25,16.50
2018,07,14,03,26,16.50
2018,07,14,03,27,16.50
2018,07,14,03,28,16.60
2018,07,14,03,29,16.60
2018,07,14,03,30,16.70
2018,07,14,03,31,16.80
2018,07,14,03,32,16.90
2018,07,14,03,33,17.00
2018,07,14,03,34,17.10
2018,07,14,03,35,17.20
2018,07,14,03,36,17.30
2018,07,14,03,37,17.30
2018,07,14,03,38,17.30
2018,07,14,03,39,17.40
2018,07,14,03,40,17.40
2018,07,14,03,41,17.30
2018,07,14,03,42,17.30
2018,07,14,03,43,17.30
2018,07,14,03,44,17.30
2018,07,14,03,45,17.20
2018,07,14,03,46,17.20
2018,07,14,03,47,17.10
2018,07,14,03,48,17.10
2018,07,14,03,49,17.10
2018,07,14,03,50,17.10
2018,07,14,03,51,17.10
2018,07,14,03,52,17.00
2018,07,14,03,53,17.00
2018,07,14,03,54,17.00
2018,07,14,03,55,17.00
2018,07,14,03,56,17.00
2018,07,14,03,57,16.90
2018,07,14,03,58,16.90
2018,07,14,03,59,16.90
2018,07,14,04,00,16.80
2018,07,14,04,01,16.80
2018,07,14,04,02,16.70
2018,07,14,04,03,16.70
2018,07,14,04,04,16.70
2018,07,14,04,05,16.70
2018,07,14,04,06,16.70
2018,07,14,04,07,16.80
2018,07,14,04,08,16.90
2018,07,14,04,09,17.00
2018,07,14,04,10,17.10
2018,07,14,04,11,17.20
2018,07,14,04,12,17.30
2018,07,14,04,13,17.30
2018,07,14,04,14,17.30
2018,07,14,04,15,17.20
2018,07,14,04,16,17.20
2018,07,14,04,17,17.20
2018,07,14,04,18,17.10
2018,07,14,04,19,17.10
2018,07,14,04,20,17.10
2018,07,14,04,21,17.00
2018,07,14,04,22,17.00
2018,07,14,04,23,16.90
2018,07,14,04,24,16.90
2018,07,14,04,25,16.90
2018,07,14,04,26,16.80
2018,07,14,04,27,16.80
2018,07,14,04,28,16.80
2018,07,14,04,29,16.80
2018,07,14,04,30,16.80
2018,07,14,04,31,16.80
2018,07,14,04,32,16.70
2018,07,14,04,33,16.70
2018,07,14,04,34,16.70
2018,07,14,04,35,16.70
2018,07,14,04,36,16.70
2018,07,14,04,37,16.60
2018,07,14,04,38,16.50
2018,07,14,04,39,16.40
2018,07,14,04,40,16.40
2018,07,14,04,41,16.30
2018,07,14,04,42,16.20
2018,07,14,04,43,16.10
2018,07,14,04,44,16.10
2018,07,14,04,45,16.00
2018,07,14,04,46,15.90
2018,07,14,04,47,15.90
2018,07,14,04,48,15.90
2018,07,14,04,49,15.90
2018,07,14,04,50,15.90
2018,07,14,04,51,15.90
2018,07,14,04,52,16.00
2018,07,14,04,53,16.00
2018,07,14,04,54,16.00
2018,07,14,04,55,16.10
2018,07,14,04,56,16.10
2018,07,14,04,57,16.00
2018,07,14,04,58,16.00
2018,07,14,04,59,16.00
2018,07,14,05,00,16.00
2018,07,14,05,01,15.90
2018,07,14,05,02,15.90
2018,07,14,05,03,15.90
2018,07,14,05,04,15.90
2018,07,14,05,05,15.80
2018,07,14,05,06,15.80
2018,07,14,05,07,15.80
2018,07,14,05,08,15.80
2018,07,14,05,09,15.80
2018,07,14,05,10,15.80
2018,07,14,05,11,15.70
2018,07,14,05,12,15.60
2018,07,14,05,13,15.60
2018,07,14,05,14,15.50
2018,07,14,05,15,15.50
2018,07,14,05,16,15.50
2018,07,14,05,17,15.60
2018,07,14,05,18,15.60
2018,07,14,05,19,15.70
2018,07,14,05,20,15.70
2018,07,14,05,21,15.70
2018,07,14,05,22,15.80
2018,07,14,05,23,15.80
2018,07,14,05,24,15.90
2018,07,14,05,25,16.00
2018,07,14,05,26,16.00
2018,07,14,05,27,16.10
2018,07,14,05,28,16.10
2018,07,14,05,29,16.20
2018,07,14,05,30,16.20
2018,07,14,05,31,16.20
2018,07,14,05,32,16.20
2018,07,14,05,33,16.20
2018,07,14,05,34,16.30
2018,07,14,05,35,16.30
2018,07,14,05,36,16.30
2018,07,14,05,37,16.30
2018,07,14,05,38,16.30
2018,07,14,05,39,16.30
2018,07,14,05,40,16.30
2018,07,14,05,41,16.30
2018,07,14,05,42,16.30
2018,07,14,05,43,16.30
2018,07,14,05,44,16.30
2018,07,14,05,45,16.30
2018,07,14,05,46,16.30
2018,07,14,05,47,16.30
2018,07,14,05,48,16.30
2018,07,14,05,49,16.30
2018,07,14,05,50,16.30
2018,07,14,05,51,16.30
2018,07,14,05,52,16.30
2018,07,14,05,53,16.30
2018,07,14,05,54,16.40
2018,07,14,05,55,16.40
2018,07,14,05,56,16.40
2018,07,14,05,57,16.40
2018,07,14,05,58,16.30
2018,07,14,05,59,16.30
2018,07,14,06,00,16.30
2018,07,14,06,01,16.30
2018,07,14,06,02,16.30
2018,07,14,06,03,16.20
2018,07,14,06,04,16.20
2018,07,14,06,05,16.20
2018,07,14,06,06,16.10
2018,07,14,06,07,16.10
2018,07,14,06,08,16.10
2018,07,14,06,09,16.00
2018,07,14,06,10,16.00
2018,07,14,06,11,15.90
2018,07,14,06,12,15.90
2018,07,14,06,13,15.90
2018,07,14,06,14,16.00
2018,07,14,06,15,16.00
2018,07,14,06,16,16.00
2018,07,14,06,17,16.10
2018,07,14,06,18,16.10
2018,07,14,06,19,16.10
2018,07,14,06,20,16.20
2018,07,14,06,21,16.20
2018,07,14,06,22,16.20
2018,07,14,06,23,16.20
2018,07,14,06,24,16.20
2018,07,14,06,25,16.30
2018,07,14,06,26,16.30
2018,07,14,06,27,16.30
2018,07,14,06,28,16.40
2018,07,14,06,29,16.40
2018,07,14,06,30,16.40
2018,07,14,06,31,16.40
2018,07,14,06,32,16.40
2018,07,14,06,33,16.40
2018,07,14,06,34,16.50
2018,07,14,06,35,16.50
2018,07,14,06,36,16.50
2018,07,14,06,37,16.60
2018,07,14,06,38,16.60
2018,07,14,06,39,16.60
2018,07,14,06,40,16.60
2018,07,14,06,41,16.70
2018,07,14,06,42,16.70
2018,07,14,06,43,16.80
2018,07,14,06,44,16.80
2018,07,14,06,45,16.90
2018,07,14,06,46,17.00
2018,07,14,06,47,17.00
2018,07,14,06,48,17.10
2018,07,14,06,49,17.10
2018,07,14,06,50,17.10
2018,07,14,06,51,17.10
2018,07,14,06,52,17.10
2018,07,14,06,53,17.10
2018,07,14,06,54,17.10
2018,07,14,06,55,17.10
2018,07,14,06,56,17.10
2018,07,14,06,57,17.10
2018,07,14,06,58,17.10
2018,07,14,06,59,17.10
2018,07,14,07,00,17.10
2018,07,14,07,01,17.00
2018,07,14,07,02,17.00
2018,07,14,07,03,17.00
2018,07,14,07,04,17.00
2018,07,14,07,05,17.10
2018,07,14,07,06,17.10
2018,07,14,07,07,17.20
2018,07,14,07,08,17.20
2018,07,14,07,09,17.30
2018,07,14,07,10,17.30
2018,07,14,07,11,17.30
2018,07,14,07,12,17.40
2018,07,14,07,13,17.40
2018,07,14,07,14,17.40
2018,07,14,07,15,17.40
2018,07,14,07,16,17.40
2018,07,14,07,17,17.40
2018,07,14,07,18,17.30
2018,07,14,07,19,17.30
2018,07,14,07,20,17.30
2018,07,14,07,21,17.30
2018,07,14,07,22,17.30
2018,07,14,07,23,17.30
2018,07,14,07,24,17.30
2018,07,14,07,25,17.30
2018,07,14,07,26,17.30
2018,07,14,07,27,17.40
2018,07,14,07,28,17.40
2018,07,14,07,29,17.40
2018,07,14,07,30,17.40
2018,07,14,07,31,17.50
2018,07,14,07,32,17.50
2018,07,14,07,33,17.60
2018,07,14,07,34,17.60
2018,07,14,07,35,17.60
2018,07,14,07,36,17.60
2018,07,14,07,37,17.70
2018,07,14,07,38,17.70
2018,07,14,07,39,17.80
2018,07,14,07,40,17.80
2018,07,14,07,41,17.90
2018,07,14,07,42,18.00
2018,07,14,07,43,18.00
2018,07,14,07,44,18.10
2018,07,14,07,45,18.20
2018,07,14,07,46,18.20
2018,07,14,07,47,18.30
2018,07,14,07,48,18.30
2018,07,14,07,49,18.40
2018,07,14,07,50,18.40
2018,07,14,07,51,18.40
2018,07,14,07,52,18.50
2018,07,14,07,53,18.50
2018,07,14,07,54,18.60
2018,07,14,07,55,18.60
2018,07,14,07,56,18.70
2018,07,14,07,57,18.70
2018,07,14,07,58,18.80
2018,07,14,07,59,18.80
2018,07,14,08,00,18.90
2018,07,14,08,01,19.00
2018,07,14,08,02,19.00
2018,07,14,08,03,19.10
2018,07,14,08,04,19.20
2018,07,14,08,05,19.20
2018,07,14,08,06,19.20
2018,07,14,08,07,19.20
2018,07,14,08,08,19.20
2018,07,14,08,09,19.20
2018,07,14,08,10,19.30
2018,07,14,08,11,19.30
2018,07,14,08,12,19.40
2018,07,14,08,13,19.40
2018,07,14,08,14,19.50
2018,07,14,08,15,19.50
2018,07,14,08,16,19.60
2018,07,14,08,17,19.60
2018,07,14,08,18,19.60
2018,07,14,08,19,19.60
2018,07,14,08,20,19.70
2018,07,14,08,21,19.70
2018,07,14,08,22,19.70
2018,07,14,08,23,19.70
2018,07,14,08,24,19.70
2018,07,14,08,25,19.70
2018,07,14,08,26,19.70
2018,07,14,08,27,19.70
2018,07,14,08,28,19.70
2018,07,14,08,29,19.70
2018,07,14,08,30,19.80
2018,07,14,08,31,19.80
2018,07,14,08,32,19.90
2018,07,14,08,33,20.00
2018,07,14,08,34,20.00
2018,07,14,08,35,20.10
2018,07,14,08,36,20.20
2018,07,14,08,37,20.20
2018,07,14,08,38,20.30
2018,07,14,08,39,20.30
2018,07,14,08,40,20.40
2018,07,14,08,41,20.40
2018,07,14,08,42,20.40
2018,07,14,08,43,20.40
2018,07,14,08,44,20.50
2018,07,14,08,45,20.50
2018,07,14,08,46,20.60
2018,07,14,08,47,20.60
2018,07,14,08,48,20.60
2018,07,14,08,49,20.70
2018,07,14,08,50,20.70
2018,07,14,08,51,20.70
2018,07,14,08,52,20.70
2018,07,14,08,53,20.60
2018,07,14,08,54,20.60
2018,07,14,08,55,20.70
2018,07,14,08,56,20.70
2018,07,14,08,57,20.70
2018,07,14,08,58,20.70
2018,07,14,08,59,20.70
2018,07,14,09,00,20.70
2018,07,14,09,01,20.70
2018,07,14,09,02,20.70
2018,07,14,09,03,20.70
2018,07,14,09,04,20.70
2018,07,14,09,05,20.70
2018,07,14,09,06,20.80
2018,07,14,09,07,20.80
2018,07,14,09,08,20.90
2018,07,14,09,09,21.00
2018,07,14,09,10,21.10
2018,07,14,09,11,21.20
2018,07,14,09,12,21.20
2018,07,14,09,13,21.30
2018,07,14,09,14,21.30
2018,07,14,09,15,21.40
2018,07,14,09,16,21.40
2018,07,14,09,17,21.40
2018,07,14,09,18,21.50
2018,07,14,09,19,21.60
2018,07,14,09,20,21.60
2018,07,14,09,21,21.70
2018,07,14,09,22,21.70
2018,07,14,09,23,21.70
2018,07,14,09,24,21.70
2018,07,14,09,25,21.70
2018,07,14,09,26,21.70
2018,07,14,09,27,21.60
2018,07,14,09,28,21.60
2018,07,14,09,29,21.60
2018,07,14,09,30,21.60
2018,07,14,09,31,21.70
2018,07,14,09,32,21.80
2018,07,14,09,33,21.80
2018,07,14,09,34,21.80
2018,07,14,09,35,21.90
2018,07,14,09,36,21.90
2018,07,14,09,37,22.00
2018,07,14,09,38,22.10
2018,07,14,09,39,22.10
2018,07,14,09,40,22.10
2018,07,14,09,41,22.10
2018,07,14,09,42,22.20
2018,07,14,09,43,22.20
2018,07,14,09,44,22.30
2018,07,14,09,45,22.30
2018,07,14,09,46,22.40
2018,07,14,09,47,22.50
2018,07,14,09,48,22.60
2018,07,14,09,49,22.70
2018,07,14,09,50,22.80
2018,07,14,09,51,22.80
2018,07,14,09,52,22.80
2018,07,14,09,53,22.90
2018,07,14,09,54,22.90
2018,07,14,09,55,23.00
2018,07,14,09,56,23.00
2018,07,14,09,57,23.00
2018,07,14,09,58,22.90
2018,07,14,09,59,22.80
2018,07,14,10,00,22.70
2018,07,14,10,01,22.70
2018,07,14,10,02,22.80
2018,07,14,10,03,22.80
2018,07,14,10,04,22.80
2018,07,14,10,05,22.90
2018,07,14,10,06,23.00
2018,07,14,10,07,23.10
2018,07,14,10,08,23.20
2018,07,14,10,09,23.20
2018,07,14,10,10,23.20
2018,07,14,10,11,23.30
2018,07,14,10,12,23.30
2018,07,14,10,13,23.30
2018,07,14,10,14,23.30
2018,07,14,10,15,23.30
2018,07,14,10,16,23.30
2018,07,14,10,17,23.40
2018,07,14,10,18,23.40
2018,07,14,10,19,23.50
2018,07,14,10,20,23.60
2018,07,14,10,21,23.60
2018,07,14,10,22,23.70
2018,07,14,10,23,23.70
2018,07,14,10,24,23.70
2018,07,14,10,25,23.70
2018,07,14,10,26,23.70
2018,07,14,10,27,23.70
2018,07,14,10,28,23.80
2018,07,14,10,29,23.80
2018,07,14,10,30,23.80
2018,07,14,10,31,23.80
2018,07,14,10,32,23.90
2018,07,14,10,33,24.00
2018,07,14,10,34,24.00
2018,07,14,10,35,24.10
2018,07,14,10,36,24.10
2018,07,14,10,37,24.10
2018,07,14,10,38,24.10
2018,07,14,10,39,24.10
2018,07,14,10,40,24.10
2018,07,14,10,41,24.20
2018,07,14,10,42,24.30
2018,07,14,10,43,24.30
2018,07,14,10,44,24.40
2018,07,14,10,45,24.50
2018,07,14,10,46,24.60
2018,07,14,10,47,24.70
2018,07,14,10,48,24.70
2018,07,14,10,49,24.80
2018,07,14,10,50,24.90
2018,07,14,10,51,25.00
2018,07,14,10,52,25.00
2018,07,14,10,53,25.00
2018,07,14,10,54,25.10
2018,07,14,10,55,25.20
2018,07,14,10,56,25.20
2018,07,14,10,57,25.20
2018,07,14,10,58,25.30
2018,07,14,10,59,25.40
2018,07,14,11,00,25.40
2018,07,14,11,01,25.50
2018,07,14,11,02,25.50
2018,07,14,11,03,25.60
2018,07,14,11,04,25.60
2018,07,14,11,05,25.60
2018,07,14,11,06,25.60
2018,07,14,11,07,25.70
2018,07,14,11,08,25.60
2018,07,14,11,09,25.50
2018,07,14,11,10,25.50
2018,07,14,11,11,25.50
2018,07,14,11,12,25.60
2018,07,14,11,13,25.50
2018,07,14,11,14,25.50
2018,07,14,11,15,25.30
2018,07,14,11,16,25.20
2018,07,14,11,17,25.00
2018,07,14,11,18,24.90
2018,07,14,11,19,24.80
2018,07,14,11,20,24.70
2018,07,14,11,21,24.60
2018,07,14,11,22,24.60
2018,07,14,11,23,24.70
2018,07,14,11,24,24.90
2018,07,14,11,25,25.00
2018,07,14,11,26,25.10
2018,07,14,11,27,25.00
2018,07,14,11,28,25.10
2018,07,14,11,29,24.90
2018,07,14,11,30,24.80
2018,07,14,11,31,24.80
2018,07,14,11,32,24.80
2018,07,14,11,33,24.70
2018,07,14,11,34,24.70
2018,07,14,11,35,24.80
2018,07,14,11,36,24.70
2018,07,14,11,37,24.80
2018,07,14,11,38,24.70
2018,07,14,11,39,24.60
2018,07,14,11,40,24.60
2018,07,14,11,41,24.70
2018,07,14,11,42,24.90
2018,07,14,11,43,24.90
2018,07,14,11,44,25.00
2018,07,14,11,45,25.10
2018,07,14,11,46,25.30
2018,07,14,11,47,25.20
2018,07,14,11,48,25.20
2018,07,14,11,49,25.10
2018,07,14,11,50,25.00
2018,07,14,11,51,24.90
2018,07,14,11,52,24.80
2018,07,14,11,53,24.70
2018,07,14,11,54,24.60
2018,07,14,11,55,24.60
2018,07,14,11,56,24.60
2018,07,14,11,57,24.50
2018,07,14,11,58,24.50
2018,07,14,11,59,24.60
2018,07,14,12,00,24.80
2018,07,14,12,01,24.80
2018,07,14,12,02,25.00
2018,07,14,12,03,25.10
2018,07,14,12,04,25.20
2018,07,14,12,05,25.20
2018,07,14,12,06,25.10
2018,07,14,12,07,25.10
2018,07,14,12,08,25.00
2018,07,14,12,09,25.00
2018,07,14,12,10,25.20
2018,07,14,12,11,25.30
2018,07,14,12,12,25.50
2018,07,14,12,13,25.40
2018,07,14,12,14,25.30
2018,07,14,12,15,25.30
2018,07,14,12,16,25.30
2018,07,14,12,17,25.40
2018,07,14,12,18,25.60
2018,07,14,12,19,25.70
2018,07,14,12,20,25.90
2018,07,14,12,21,25.90
2018,07,14,12,22,25.80
2018,07,14,12,23,25.80
2018,07,14,12,24,25.70
2018,07,14,12,25,25.60
2018,07,14,12,26,25.50
2018,07,14,12,27,25.40
2018,07,14,12,28,25.40
2018,07,14,12,29,25.30
2018,07,14,12,30,25.30
2018,07,14,12,31,25.40
2018,07,14,12,32,25.40
2018,07,14,12,33,25.40
2018,07,14,12,34,25.50
2018,07,14,12,35,25.50
2018,07,14,12,36,25.60
2018,07,14,12,37,25.70
2018,07,14,12,38,25.70
2018,07,14,12,39,25.70
2018,07,14,12,40,25.70
2018,07,14,12,41,25.70
2018,07,14,12,42,25.80
2018,07,14,12,43,25.70
2018,07,14,12,44,25.70
2018,07,14,12,45,25.70
2018,07,14,12,46,25.70
2018,07,14,12,47,25.70
2018,07,14,12,48,25.70
2018,07,14,12,49,25.70
2018,07,14,12,50,25.70
2018,07,14,12,51,25.70
2018,07,14,12,52,25.80
2018,07,14,12,53,25.90
2018,07,14,12,54,25.90
2018,07,14,12,55,25.80
2018,07,14,12,56,25.80
2018,07,14,12,57,25.70
2018,07,14,12,58,25.70
2018,07,14,12,59,25.60
2018,07,14,13,00,25.60
2018,07,14,13,01,25.70
2018,07,14,13,02,25.70
2018,07,14,13,03,25.70
2018,07,14,13,04,25.70
2018,07,14,13,05,25.60
2018,07,14,13,06,25.60
2018,07,14,13,07,25.60
2018,07,14,13,08,25.60
2018,07,14,13,09,25.70
2018,07,14,13,10,25.80
2018,07,14,13,11,26.00
2018,07,14,13,12,26.10
2018,07,14,13,13,26.20
2018,07,14,13,14,26.10
2018,07,14,13,15,26.10
2018,07,14,13,16,26.10
2018,07,14,13,17,26.20
2018,07,14,13,18,26.30
2018,07,14,13,19,26.30
2018,07,14,13,20,26.20
2018,07,14,13,21,26.10
2018,07,14,13,22,26.20
2018,07,14,13,23,26.30
2018,07,14,13,24,26.50
2018,07,14,13,25,26.60
2018,07,14,13,26,26.70
2018,07,14,13,27,26.80
2018,07,14,13,28,26.80
2018,07,14,13,29,26.80
2018,07,14,13,30,26.80
2018,07,14,13,31,26.80
2018,07,14,13,32,26.90
2018,07,14,13,33,27.00
2018,07,14,13,34,27.00
2018,07,14,13,35,26.90
2018,07,14,13,36,26.90
2018,07,14,13,37,27.00
2018,07,14,13,38,27.00
2018,07,14,13,39,27.00
2018,07,14,13,40,27.00
2018,07,14,13,41,27.20
2018,07,14,13,42,27.10
2018,07,14,13,43,27.10
2018,07,14,13,44,27.20
2018,07,14,13,45,27.20
2018,07,14,13,46,27.20
2018,07,14,13,47,27.00
2018,07,14,13,48,26.90
2018,07,14,13,49,26.70
2018,07,14,13,50,26.60
2018,07,14,13,51,26.50
2018,07,14,13,52,26.60
2018,07,14,13,53,26.60
2018,07,14,13,54,26.70
2018,07,14,13,55,26.90
2018,07,14,13,56,27.10
2018,07,14,13,57,27.30
2018,07,14,13,58,27.40
2018,07,14,13,59,27.40
2018,07,14,14,00,27.50
2018,07,14,14,01,27.50
2018,07,14,14,02,27.40
2018,07,14,14,03,27.40
2018,07,14,14,04,27.40
2018,07,14,14,05,27.40
2018,07,14,14,06,27.30
2018,07,14,14,07,27.30
2018,07,14,14,08,27.50
2018,07,14,14,09,27.60
2018,07,14,14,10,27.60
2018,07,14,14,11,27.60
2018,07,14,14,12,27.60
2018,07,14,14,13,27.60
2018,07,14,14,14,27.70
2018,07,14,14,15,27.70
2018,07,14,14,16,27.70
2018,07,14,14,17,27.70
2018,07,14,14,18,27.90
2018,07,14,14,19,28.10
2018,07,14,14,20,28.30
2018,07,14,14,21,28.30
2018,07,14,14,22,28.30
2018,07,14,14,23,28.20
2018,07,14,14,24,28.10
2018,07,14,14,25,27.90
2018,07,14,14,26,27.80
2018,07,14,14,27,27.80
2018,07,14,14,28,27.80
2018,07,14,14,29,27.70
2018,07,14,14,30,27.70
2018,07,14,14,31,27.70
2018,07,14,14,32,27.60
2018,07,14,14,33,27.60
2018,07,14,14,34,27.70
2018,07,14,14,35,27.70
2018,07,14,14,36,27.70
2018,07,14,14,37,27.60
2018,07,14,14,38,27.50
2018,07,14,14,39,27.50
2018,07,14,14,40,27.60
2018,07,14,14,41,27.70
2018,07,14,14,42,27.90
2018,07,14,14,43,27.90
2018,07,14,14,44,27.90
2018,07,14,14,45,28.00
2018,07,14,14,46,28.10
2018,07,14,14,47,28.10
2018,07,14,14,48,28.20
2018,07,14,14,49,28.20
2018,07,14,14,50,28.20
2018,07,14,14,51,28.10
2018,07,14,14,52,28.00
2018,07,14,14,53,27.80
2018,07,14,14,54,27.80
2018,07,14,14,55,27.80
2018,07,14,14,56,27.80
2018,07,14,14,57,27.90
2018,07,14,14,58,28.00
2018,07,14,14,59,28.10
2018,07,14,15,00,28.10
2018,07,14,15,01,28.30
2018,07,14,15,02,28.40
2018,07,14,15,03,28.40
2018,07,14,15,04,28.40
2018,07,14,15,05,28.50
2018,07,14,15,06,28.50
2018,07,14,15,07,28.60
2018,07,14,15,08,28.70
2018,07,14,15,09,28.80
2018,07,14,15,10,28.90
2018,07,14,15,11,28.90
2018,07,14,15,12,29.00
2018,07,14,15,13,29.10
2018,07,14,15,14,29.10
2018,07,14,15,15,29.20
2018,07,14,15,16,29.20
2018,07,14,15,17,29.10
2018,07,14,15,18,28.90
2018,07,14,15,19,28.80
2018,07,14,15,20,28.70
2018,07,14,15,21,28.70
2018,07,14,15,22,28.70
2018,07,14,15,23,28.60
2018,07,14,15,24,28.60
2018,07,14,15,25,28.60
2018,07,14,15,26,28.70
2018,07,14,15,27,28.70
2018,07,14,15,28,28.70
2018,07,14,15,29,28.70
2018,07,14,15,30,28.60
2018,07,14,15,31,28.60
2018,07,14,15,32,28.60
2018,07,14,15,33,28.50
2018,07,14,15,34,28.40
2018,07,14,15,35,28.30
2018,07,14,15,36,28.30
2018,07,14,15,37,28.40
2018,07,14,15,38,28.40
2018,07,14,15,39,28.40
2018,07,14,15,40,28.40
2018,07,14,15,41,28.40
2018,07,14,15,42,28.30
2018,07,14,15,43,28.30
2018,07,14,15,44,28.30
2018,07,14,15,45,28.30
2018,07,14,15,46,28.40
2018,07,14,15,47,28.40
2018,07,14,15,48,28.50
2018,07,14,15,49,28.60
2018,07,14,15,50,28.70
2018,07,14,15,51,28.70
2018,07,14,15,52,28.80
2018,07,14,15,53,28.90
2018,07,14,15,54,29.00
2018,07,14,15,55,29.00
2018,07,14,15,56,29.10
2018,07,14,15,57,29.20
2018,07,14,15,58,29.30
2018,07,14,15,59,29.40
2018,07,14,16,00,29.50
2018,07,14,16,01,29.60
2018,07,14,16,02,29.80
2018,07,14,16,03,29.80
2018,07,14,16,04,29.90
2018,07,14,16,05,29.90
2018,07,14,16,06,30.00
2018,07,14,16,07,30.00
2018,07,14,16,08,29.90
2018,07,14,16,09,29.90
2018,07,14,16,10,29.90
2018,07,14,16,11,29.90
2018,07,14,16,12,30.00
2018,07,14,16,13,30.10
2018,07,14,16,14,30.20
2018,07,14,16,15,30.20
2018,07,14,16,16,30.10
2018,07,14,16,17,30.00
2018,07,14,16,18,29.90
2018,07,14,16,19,29.80
2018,07,14,16,20,29.80
2018,07,14,16,21,29.80
2018,07,14,16,22,29.80
2018,07,14,16,23,29.90
2018,07,14,16,24,29.90
2018,07,14,16,25,30.00
2018,07,14,16,26,30.00
2018,07,14,16,27,30.00
2018,07,14,16,28,29.90
2018,07,14,16,29,29.90
2018,07,14,16,30,29.90
2018,07,14,16,31,29.90
2018,07,14,16,32,29.90
2018,07,14,16,33,29.90
2018,07,14,16,34,29.90
2018,07,14,16,35,29.90
2018,07,14,16,36,29.80
2018,07,14,16,37,29.70
2018,07,14,16,38,29.70
2018,07,14,16,39,29.70
2018,07,14,16,40,29.70
2018,07,14,16,41,29.70
2018,07,14,16,42,29.70
2018,07,14,16,43,29.70
2018,07,14,16,44,29.80
2018,07,14,16,45,29.80
2018,07,14,16,46,29.80
2018,07,14,16,47,29.70
2018,07,14,16,48,29.70
2018,07,14,16,49,29.70
2018,07,14,16,50,29.70
2018,07,14,16,51,29.70
2018,07,14,16,52,29.60
2018,07,14,16,53,29.50
2018,07,14,16,54,29.40
2018,07,14,16,55,29.40
2018,07,14,16,56,29.40
2018,07,14,16,57,29.30
2018,07,14,16,58,29.40
2018,07,14,16,59,29.40
2018,07,14,17,00,29.40
2018,07,14,17,01,29.50
2018,07,14,17,02,29.40
2018,07,14,17,03,29.40
2018,07,14,17,04,29.30
2018,07,14,17,05,29.30
2018,07,14,17,06,29.40
2018,07,14,17,07,29.40
2018,07,14,17,08,29.50
2018,07,14,17,09,29.60
2018,07,14,17,10,29.60
2018,07,14,17,11,29.60
2018,07,14,17,12,29.60
2018,07,14,17,13,29.60
2018,07,14,17,14,29.60
2018,07,14,17,15,29.60
2018,07,14,17,16,29.60
2018,07,14,17,17,29.60
2018,07,14,17,18,29.60
2018,07,14,17,19,29.60